Defiance, OH

10:04 PM EST on February 20, 2017 (GMT -0500)
Defiance Memorial

Weather History for KDFI - October, 2012

Change the Weather History Date:

Monday, October 1, 2012

  Actual Average Record
Temperature  
Mean Temperature 52 °F -  
Max Temperature 68 °F 70 °F 88 °F (1937)
Min Temperature 39 °F 45 °F 29 °F (1947)
Degree Days  
Heating Degree Days 14    
Growing Degree Days 2 (Base 50)    
Moisture  
Dew Point 44 °F    
Average Humidity 78    
Maximum Humidity 97    
Minimum Humidity 48    
Precipitation  
Precipitation 0.02 in - - ()
Sea Level Pressure  
Sea Level Pressure 29.91 in    
Wind  
Wind Speed 2 mph (ENE)    
Max Wind Speed 9 mph    
Max Gust Speed -    
Visibility 7 miles    
Events Rain    
Averages and records for this station are not official NWS values.
T = Trace of Precipitation, MM = Missing Value Source: NWS Daily Summary

Daily Weather History Graph

Daily Weather History Graph

Search for Another Location

Airport or City:

Trip Planner

Search our weather history database for the weather conditions in past years. The results will help you decide how hot, cold, wet, or windy it might be!

Date:

Astronomy

Oct. 01, 2012 Rise Set
Actual Time 7:34 AM EDT 7:18 PM EDT
Civil Twilight 7:07 AM EDT 7:46 PM EDT
Nautical Twilight 6:35 AM EDT 8:18 PM EDT
Astronomical Twilight 6:02 AM EDT 8:50 PM EDT
Moon 7:53 PM EDT (10/1) 9:05 AM EDT (10/1)
Length of Visible Light 12h 38m
Length of Day
11h 43m
Full, 98% of the Moon is Illuminated
Oct 1
Full
Oct 8
Last Quarter
Oct 15
New
Oct 21
First Quarter
Oct 29
Full

Hourly Weather History & Observations

Time (EDT) Temp. Dew Point Humidity Pressure Visibility Wind Dir Wind Speed Gust Speed Precip Events Conditions
12:53 AM 44.1 °F 42.1 °F 93% 29.96 in 10.0 mi Calm Calm - N/A   Clear
1:53 AM 45.0 °F 42.1 °F 90% 29.95 in 8.0 mi Calm Calm - N/A   Clear
2:53 AM 44.1 °F 41.0 °F 89% 29.95 in 6.0 mi Calm Calm - N/A   Clear
3:53 AM 43.0 °F 41.0 °F 93% 29.94 in 5.0 mi Calm Calm - N/A   Clear
4:53 AM 44.1 °F 41.0 °F 89% 29.93 in 6.0 mi Calm Calm - N/A   Clear
6:14 AM 42.8 °F 39.2 °F 87% 29.93 in 2.0 mi Calm Calm - N/A   Clear
6:33 AM 41.0 °F 39.2 °F 93% 29.93 in 3.0 mi Calm Calm - N/A   Clear
6:53 AM 39.9 °F 39.0 °F 97% 29.94 in 5.0 mi Calm Calm - N/A   Clear
7:37 AM 41.0 °F 39.2 °F 93% 29.94 in 0.8 mi Calm Calm - N/A   Clear
7:48 AM 42.8 °F 39.2 °F 87% 29.94 in 2.0 mi Calm Calm - N/A   Clear
7:50 AM 42.8 °F 39.2 °F 87% 29.95 in 3.0 mi Calm Calm - N/A   Clear
7:53 AM 42.1 °F 39.9 °F 92% 29.96 in 4.0 mi Calm Calm - N/A   Clear
8:53 AM 44.1 °F 43.0 °F 96% 29.96 in 6.0 mi Calm Calm - N/A   Clear
9:53 AM 51.1 °F 46.9 °F 86% 29.96 in 10.0 mi NNE 3.5 mph - N/A   Clear
10:53 AM 59.0 °F 51.1 °F 75% 29.94 in 10.0 mi Variable 5.8 mph - N/A   Clear
11:53 AM 62.1 °F 46.0 °F 56% 29.92 in 10.0 mi ESE 8.1 mph - N/A   Clear
12:53 PM 62.1 °F 45.0 °F 53% 29.92 in 10.0 mi East 9.2 mph - N/A   Clear
1:53 PM 64.0 °F 46.0 °F 52% 29.89 in 10.0 mi East 8.1 mph - N/A   Clear
4:53 PM 64.9 °F 45.0 °F 48% 29.84 in 10.0 mi East 6.9 mph - N/A   Clear
6:53 PM 63.0 °F 46.9 °F 56% 29.84 in 10.0 mi NE 8.1 mph - N/A   Clear
7:53 PM 61.0 °F 46.9 °F 60% 29.83 in 10.0 mi NE 8.1 mph - N/A   Clear
8:53 PM 60.1 °F 48.0 °F 64% 29.85 in 10.0 mi NE 6.9 mph - N/A   Overcast
9:53 PM 59.0 °F 46.9 °F 64% 29.85 in 10.0 mi NNE 4.6 mph - N/A   Overcast
10:53 PM 57.0 °F 48.9 °F 74% 29.85 in 10.0 mi ENE 5.8 mph - 0.00 in Rain Light Rain
11:53 PM 55.0 °F 51.1 °F 86% 29.82 in 10.0 mi NE 8.1 mph - 0.02 in Rain Light Rain